| time (UTC) | temp F | wind direction | speed MPH | gust MPH | rain 1hr in | rain 24hr in | rain mn in | humidity % | barometer mb |
| 20260509173404 | 51 | 270 | 0.0 | 0.0 | 0.00 | 0.00 | 0.00 | 56 | 1018.8 |
| 20260509172900 | 51 | 270 | 0.0 | 0.0 | 0.00 | 0.00 | 0.00 | 56 | 1018.8 |
| 20260509172357 | 51 | 180 | 1.0 | 2.0 | 0.00 | 0.00 | 0.00 | 56 | 1018.8 |
| 20260509171853 | 51 | 180 | 0.0 | 0.0 | 0.00 | 0.00 | 0.00 | 56 | 1018.8 |
| 20260509171349 | 52 | 180 | 0.0 | 0.0 | 0.00 | 0.00 | 0.00 | 55 | 1018.8 |
| 20260509170846 | 52 | 180 | 0.0 | 0.0 | 0.00 | 0.00 | 0.00 | 55 | 1018.8 |
| 20260509170341 | 52 | 180 | 0.0 | 1.0 | 0.00 | 0.00 | 0.00 | 55 | 1018.8 |
| 20260509165836 | 52 | 270 | 0.0 | 1.0 | 0.00 | 0.00 | 0.00 | 54 | 1018.8 |
| 20260509165331 | 52 | 270 | 1.0 | 2.0 | 0.00 | 0.00 | 0.00 | 54 | 1018.8 |
| 20260509164827 | 52 | 270 | 1.0 | 2.0 | 0.00 | 0.00 | 0.00 | 54 | 1018.8 |
| 20260509164324 | 52 | 270 | 1.0 | 2.0 | 0.00 | 0.00 | 0.00 | 54 | 1018.8 |
| 20260509163820 | 52 | 270 | 0.0 | 0.0 | 0.00 | 0.00 | 0.00 | 54 | 1018.8 |
| 20260509163316 | 53 | 0 | 0.0 | 0.0 | 0.00 | 0.00 | 0.00 | 53 | 1018.8 |
| 20260509162816 | 53 | 225 | 2.0 | 2.0 | 0.00 | 0.00 | 0.00 | 54 | 1018.8 |
| 20260509162309 | 53 | 225 | 3.0 | 3.0 | 0.00 | 0.00 | 0.00 | 54 | 1018.8 |
| 20260509161805 | 53 | 225 | 0.0 | 0.0 | 0.00 | 0.00 | 0.00 | 53 | 1018.8 |
| 20260509161301 | 53 | 225 | 2.0 | 2.0 | 0.00 | 0.00 | 0.00 | 52 | 1018.8 |
| 20260509160757 | 53 | 270 | 0.0 | 1.0 | 0.00 | 0.00 | 0.00 | 52 | 1018.8 |
| 20260509160253 | 53 | 270 | 0.0 | 0.0 | 0.00 | 0.00 | 0.00 | 52 | 1018.4 |
| 20260509155748 | 53 | 0 | 0.0 | 0.0 | 0.00 | 0.00 | 0.00 | 51 | 1018.8 |
| 20260509155245 | 53 | 270 | 2.0 | 2.0 | 0.00 | 0.00 | 0.00 | 51 | 1018.4 |
| 20260509154741 | 53 | 270 | 0.0 | 1.0 | 0.00 | 0.00 | 0.00 | 51 | 1018.8 |
| 20260509154239 | 53 | 270 | 2.0 | 3.0 | 0.00 | 0.00 | 0.00 | 50 | 1018.8 |
| 20260509153736 | 53 | 270 | 2.0 | 3.0 | 0.00 | 0.00 | 0.00 | 50 | 1018.4 |
| 20260509153231 | 54 | 270 | 2.0 | 2.0 | 0.00 | 0.00 | 0.00 | 49 | 1018.8 |
| 20260509152728 | 54 | 315 | 1.0 | 1.0 | 0.00 | 0.00 | 0.00 | 48 | 1018.8 |
| 20260509152225 | 54 | 270 | 0.0 | 1.0 | 0.00 | 0.00 | 0.00 | 48 | 1018.8 |
| 20260509151722 | 54 | 180 | 0.0 | 0.0 | 0.00 | 0.00 | 0.00 | 47 | 1018.8 |
| 20260509151218 | 54 | 270 | 2.0 | 2.0 | 0.00 | 0.00 | 0.00 | 47 | 1018.8 |
| 20260509150716 | 54 | 270 | 1.0 | 2.0 | 0.00 | 0.00 | 0.00 | 46 | 1018.4 |
| 20260509150214 | 54 | 180 | 0.0 | 0.0 | 0.00 | 0.00 | 0.00 | 46 | 1018.8 |
| 20260509145710 | 54 | 90 | 0.0 | 0.0 | 0.00 | 0.00 | 0.00 | 45 | 1018.8 |
| 20260509145206 | 55 | 45 | 0.0 | 0.0 | 0.00 | 0.00 | 0.00 | 45 | 1018.8 |
| 20260509144703 | 55 | 45 | 0.0 | 0.0 | 0.00 | 0.00 | 0.00 | 44 | 1018.4 |
| 20260509144200 | 55 | 225 | 1.0 | 2.0 | 0.00 | 0.00 | 0.00 | 44 | 1018.4 |
| 20260509143657 | 55 | 0 | 0.0 | 1.0 | 0.00 | 0.00 | 0.00 | 43 | 1018.4 |
| 20260509143154 | 55 | 270 | 0.0 | 0.0 | 0.00 | 0.00 | 0.00 | 43 | 1018.4 |
| 20260509142649 | 55 | 180 | 1.0 | 2.0 | 0.00 | 0.00 | 0.00 | 43 | 1018.4 |
| 20260509142147 | 55 | 180 | 1.0 | 2.0 | 0.00 | 0.00 | 0.00 | 42 | 1018.4 |
| 20260509141642 | 56 | 270 | 0.0 | 0.0 | 0.00 | 0.00 | 0.00 | 40 | 1018.0 |
| 20260509141138 | 56 | 270 | 1.0 | 2.0 | 0.00 | 0.00 | 0.00 | 41 | 1018.0 |
| 20260509140636 | 56 | 270 | 0.0 | 0.0 | 0.00 | 0.00 | 0.00 | 40 | 1018.0 |
| 20260509140134 | 56 | 270 | 2.0 | 3.0 | 0.00 | 0.00 | 0.00 | 40 | 1017.7 |
| 20260509135631 | 56 | 315 | 1.0 | 2.0 | 0.00 | 0.00 | 0.00 | 39 | 1017.7 |
| 20260509135129 | 57 | 315 | 1.0 | 2.0 | 0.00 | 0.00 | 0.00 | 39 | 1017.7 |
| 20260509134625 | 57 | 315 | 2.0 | 2.0 | 0.00 | 0.00 | 0.00 | 38 | 1017.7 |
| 20260509134122 | 57 | 0 | 1.0 | 2.0 | 0.00 | 0.00 | 0.00 | 37 | 1017.7 |
| 20260509133620 | 57 | 45 | 1.0 | 1.0 | 0.00 | 0.00 | 0.00 | 36 | 1017.7 |
| 20260509133117 | 57 | 225 | 0.0 | 1.0 | 0.00 | 0.00 | 0.00 | 36 | 1017.7 |
| 20260509132615 | 57 | 180 | 0.0 | 1.0 | 0.00 | 0.00 | 0.00 | 36 | 1017.7 |
| 20260509132113 | 57 | 180 | 0.0 | 1.0 | 0.00 | 0.00 | 0.00 | 35 | 1017.7 |
| 20260509131609 | 58 | 270 | 1.0 | 3.0 | 0.00 | 0.00 | 0.00 | 35 | 1017.7 |
| 20260509131106 | 58 | 270 | 2.0 | 2.0 | 0.00 | 0.00 | 0.00 | 34 | 1017.7 |
| 20260509130602 | 58 | 270 | 0.0 | 1.0 | 0.00 | 0.00 | 0.00 | 33 | 1017.7 |
| 20260509130058 | 58 | 225 | 1.0 | 2.0 | 0.00 | 0.00 | 0.00 | 33 | 1017.7 |
| 20260509125555 | 59 | 270 | 1.0 | 2.0 | 0.00 | 0.00 | 0.00 | 33 | 1017.3 |
| 20260509125052 | 59 | 180 | 0.0 | 0.0 | 0.00 | 0.00 | 0.00 | 32 | 1017.7 |
| 20260509124548 | 59 | 180 | 1.0 | 2.0 | 0.00 | 0.00 | 0.00 | 31 | 1017.3 |
| 20260509124045 | 59 | 270 | 0.0 | 1.0 | 0.00 | 0.00 | 0.00 | 30 | 1017.3 |
| 20260509123543 | 59 | 225 | 2.0 | 2.0 | 0.00 | 0.00 | 0.00 | 28 | 1017.3 |
| 20260509123039 | 59 | 225 | 2.0 | 2.0 | 0.00 | 0.00 | 0.00 | 27 | 1017.3 |
| 20260509122536 | 60 | 180 | 0.0 | 0.0 | 0.00 | 0.00 | 0.00 | 26 | 1017.3 |
| 20260509122033 | 60 | 180 | 0.0 | 0.0 | 0.00 | 0.00 | 0.00 | 26 | 1017.3 |
| 20260509121529 | 60 | 45 | 0.0 | 0.0 | 0.00 | 0.00 | 0.00 | 25 | 1017.3 |
| 20260509121027 | 60 | 0 | 0.0 | 2.0 | 0.00 | 0.00 | 0.00 | 25 | 1017.3 |
| 20260509120525 | 61 | 90 | 0.0 | 1.0 | 0.00 | 0.00 | 0.00 | 24 | 1017.3 |
| 20260509120023 | 61 | 90 | 0.0 | 0.0 | 0.00 | 0.00 | 0.00 | 24 | 1017.0 |
| 20260509115520 | 61 | 90 | 0.0 | 0.0 | 0.00 | 0.00 | 0.00 | 23 | 1017.3 |
| 20260509115018 | 61 | 90 | 0.0 | 0.0 | 0.00 | 0.00 | 0.00 | 23 | 1017.3 |
| 20260509114515 | 62 | 90 | 0.0 | 0.0 | 0.00 | 0.00 | 0.00 | 20 | 1017.3 |
| 20260509114014 | 62 | 90 | 1.0 | 2.0 | 0.00 | 0.00 | 0.00 | 20 | 1017.0 |
| 20260509113512 | 62 | 90 | 0.0 | 1.0 | 0.00 | 0.00 | 0.00 | 20 | 1017.0 |
| 20260509113010 | 62 | 90 | 1.0 | 2.0 | 0.00 | 0.00 | 0.00 | 20 | 1017.0 |
| 20260509112506 | 63 | 135 | 0.0 | 0.0 | 0.00 | 0.00 | 0.00 | 18 | 1017.0 |
| 20260509112002 | 63 | 45 | 0.0 | 0.0 | 0.00 | 0.00 | 0.00 | 18 | 1017.0 |
| 20260509111500 | 63 | 135 | 0.0 | 1.0 | 0.00 | 0.00 | 0.00 | 18 | 1016.6 |
| 20260509110957 | 64 | 45 | 0.0 | 0.0 | 0.00 | 0.00 | 0.00 | 17 | 1016.6 |
| 20260509110453 | 64 | 90 | 2.0 | 3.0 | 0.00 | 0.00 | 0.00 | 17 | 1016.6 |
| 20260509105951 | 64 | 45 | 1.0 | 2.0 | 0.00 | 0.00 | 0.00 | 15 | 1016.6 |
| 20260509105449 | 64 | 90 | 2.0 | 2.0 | 0.00 | 0.00 | 0.00 | 15 | 1016.6 |
| 20260509104946 | 64 | 45 | 2.0 | 3.0 | 0.00 | 0.00 | 0.00 | 10 | 1016.6 |
| 20260509104443 | 65 | 45 | 3.0 | 4.0 | 0.00 | 0.00 | 0.00 | 10 | 1016.3 |
| 20260509103940 | 65 | 0 | 1.0 | 2.0 | 0.00 | 0.00 | 0.00 | 10 | 1016.3 |
| 20260509103438 | 65 | 90 | 3.0 | 3.0 | 0.00 | 0.00 | 0.00 | 10 | 1016.3 |
| 20260509102936 | 65 | 45 | 4.0 | 5.0 | 0.00 | 0.00 | 0.00 | 10 | 1016.0 |
| 20260509102433 | 65 | 90 | 5.0 | 7.0 | 0.00 | 0.00 | 0.00 | 10 | 1016.0 |
| 20260509101929 | 65 | 45 | 5.0 | 6.0 | 0.00 | 0.00 | 0.00 | 14 | 1016.0 |
| 20260509101425 | 65 | 45 | 5.0 | 6.0 | 0.00 | 0.00 | 0.00 | 14 | 1016.0 |
| 20260509100923 | 66 | 90 | 2.0 | 2.0 | 0.00 | 0.00 | 0.00 | 14 | 1015.6 |
| 20260509100420 | 66 | 45 | 2.0 | 2.0 | 0.00 | 0.00 | 0.00 | 14 | 1015.6 |
| 20260509095916 | 66 | 45 | 5.0 | 6.0 | 0.00 | 0.00 | 0.00 | 14 | 1015.6 |
| 20260509095414 | 66 | 90 | 3.0 | 4.0 | 0.00 | 0.00 | 0.00 | 16 | 1015.6 |
| 20260509094911 | 66 | 45 | 2.0 | 3.0 | 0.00 | 0.00 | 0.00 | 12 | 1015.3 |
| 20260509094407 | 67 | 45 | 2.0 | 2.0 | 0.00 | 0.00 | 0.00 | 12 | 1015.3 |
| 20260509093905 | 67 | 0 | 5.0 | 6.0 | 0.00 | 0.00 | 0.00 | 12 | 1015.3 |
| 20260509093402 | 67 | 90 | 2.0 | 2.0 | 0.00 | 0.00 | 0.00 | 12 | 1014.9 |
| 20260509092900 | 67 | 45 | 0.0 | 2.0 | 0.00 | 0.00 | 0.00 | 12 | 1015.3 |
| 20260509092357 | 67 | 90 | 3.0 | 4.0 | 0.00 | 0.00 | 0.00 | 12 | 1014.9 |
| 20260509091856 | 68 | 90 | 3.0 | 4.0 | 0.00 | 0.00 | 0.00 | 13 | 1014.9 |
| 20260509091352 | 68 | 0 | 2.0 | 4.0 | 0.00 | 0.00 | 0.00 | 13 | 1014.9 |
| 20260509090850 | 68 | 0 | 4.0 | 5.0 | 0.00 | 0.00 | 0.00 | 13 | 1014.9 |
| 20260509090347 | 68 | 45 | 3.0 | 5.0 | 0.00 | 0.00 | 0.00 | 13 | 1014.6 |
| 20260509085844 | 69 | 90 | 4.0 | 5.0 | 0.00 | 0.00 | 0.00 | 13 | 1014.3 |
| 20260509085341 | 69 | 90 | 3.0 | 4.0 | 0.00 | 0.00 | 0.00 | 13 | 1014.6 |
| 20260509084838 | 69 | 90 | 2.0 | 3.0 | 0.00 | 0.00 | 0.00 | 11 | 1014.3 |
| 20260509084335 | 69 | 225 | 6.0 | 8.0 | 0.00 | 0.00 | 0.00 | 11 | 1014.3 |
| 20260509083833 | 70 | 45 | 10.0 | 11.0 | 0.00 | 0.00 | 0.00 | 11 | 1014.3 |
| 20260509083329 | 70 | 45 | 9.0 | 10.0 | 0.00 | 0.00 | 0.00 | 11 | 1013.9 |
| 20260509082826 | 70 | 45 | 7.0 | 9.0 | 0.00 | 0.00 | 0.00 | 11 | 1013.6 |
| 20260509082322 | 70 | 0 | 3.0 | 4.0 | 0.00 | 0.00 | 0.00 | 12 | 1013.9 |
| 20260509081820 | 70 | 45 | 10.0 | 13.0 | 0.00 | 0.00 | 0.00 | 12 | 1013.6 |
| 20260509081317 | 70 | 90 | 9.0 | 12.0 | 0.00 | 0.00 | 0.00 | 12 | 1013.6 |
| 20260509080815 | 70 | 45 | 6.0 | 7.0 | 0.00 | 0.00 | 0.00 | 12 | 1013.3 |
| 20260509080312 | 70 | 0 | 4.0 | 6.0 | 0.00 | 0.00 | 0.00 | 12 | 1013.3 |
| 20260509075810 | 71 | 0 | 7.0 | 8.0 | 0.00 | 0.00 | 0.00 | 12 | 1013.6 |
| 20260509075307 | 71 | 45 | 7.0 | 9.0 | 0.00 | 0.00 | 0.00 | 10 | 1013.3 |
| 20260509074804 | 71 | 45 | 6.0 | 8.0 | 0.00 | 0.00 | 0.00 | 10 | 1013.3 |
| 20260509074302 | 71 | 45 | 6.0 | 11.0 | 0.00 | 0.00 | 0.00 | 10 | 1013.3 |
| 20260509073758 | 71 | 45 | 7.0 | 8.0 | 0.00 | 0.00 | 0.00 | 16 | 1012.9 |
| 20260509073254 | 72 | 45 | 4.0 | 4.0 | 0.00 | 0.00 | 0.00 | 17 | 1012.9 |
| 20260509072751 | 72 | 90 | 2.0 | 3.0 | 0.00 | 0.00 | 0.00 | 16 | 1012.6 |
| 20260509072248 | 72 | 0 | 5.0 | 6.0 | 0.00 | 0.00 | 0.00 | 16 | 1012.6 |
| 20260509071744 | 72 | 90 | 8.0 | 12.0 | 0.00 | 0.00 | 0.00 | 16 | 1012.2 |
| 20260509071242 | 72 | 315 | 2.0 | 2.0 | 0.00 | 0.00 | 0.00 | 16 | 1012.2 |
| 20260509070738 | 72 | 0 | 4.0 | 5.0 | 0.00 | 0.00 | 0.00 | 16 | 1012.2 |
| 20260509070235 | 72 | 0 | 4.0 | 5.0 | 0.00 | 0.00 | 0.00 | 17 | 1012.2 |
| 20260509065731 | 72 | 45 | 6.0 | 10.0 | 0.00 | 0.00 | 0.00 | 17 | 1011.9 |
| 20260509065228 | 72 | 270 | 5.0 | 7.0 | 0.00 | 0.00 | 0.00 | 17 | 1011.6 |
| 20260509064724 | 72 | 90 | 1.0 | 2.0 | 0.00 | 0.00 | 0.00 | 16 | 1011.6 |
| 20260509064222 | 72 | 0 | 5.0 | 8.0 | 0.00 | 0.00 | 0.00 | 16 | 1011.6 |
| 20260509063719 | 72 | 0 | 5.0 | 6.0 | 0.00 | 0.00 | 0.00 | 10 | 1011.6 |
| 20260509063215 | 73 | 270 | 4.0 | 7.0 | 0.00 | 0.00 | 0.00 | 16 | 1011.6 |
| 20260509062713 | 73 | 0 | 9.0 | 11.0 | 0.00 | 0.00 | 0.00 | 16 | 1011.2 |
| 20260509062210 | 73 | 0 | 5.0 | 9.0 | 0.00 | 0.00 | 0.00 | 16 | 1011.6 |
| 20260509061707 | 72 | 270 | 3.0 | 4.0 | 0.00 | 0.00 | 0.00 | 16 | 1011.6 |
| 20260509061204 | 73 | 135 | 3.0 | 5.0 | 0.00 | 0.00 | 0.00 | 16 | 1011.6 |
| 20260509060701 | 73 | 270 | 5.0 | 7.0 | 0.00 | 0.00 | 0.00 | 16 | 1011.6 |
| 20260509060158 | 73 | 45 | 7.0 | 9.0 | 0.00 | 0.00 | 0.00 | 17 | 1010.9 |
| 20260509055654 | 73 | 0 | 6.0 | 9.0 | 0.00 | 0.00 | 0.00 | 18 | 1011.2 |
| 20260509055149 | 72 | 270 | 6.0 | 10.0 | 0.00 | 0.00 | 0.00 | 18 | 1011.2 |
| 20260509054646 | 72 | 0 | 11.0 | 13.0 | 0.00 | 0.00 | 0.00 | 18 | 1011.2 |
| 20260509054144 | 72 | 45 | 9.0 | 18.0 | 0.00 | 0.00 | 0.00 | 20 | 1011.2 |
| 20260509053642 | 72 | 135 | 3.0 | 5.0 | 0.00 | 0.00 | 0.00 | 20 | 1011.6 |
| 20260509053138 | 72 | 0 | 7.0 | 8.0 | 0.00 | 0.00 | 0.00 | 21 | 1011.6 |
| 20260509052636 | 72 | 45 | 7.0 | 10.0 | 0.00 | 0.00 | 0.00 | 21 | 1011.2 |
| 20260509052134 | 72 | 45 | 4.0 | 5.0 | 0.00 | 0.00 | 0.00 | 21 | 1011.2 |
| 20260509051632 | 73 | 45 | 9.0 | 11.0 | 0.00 | 0.00 | 0.00 | 21 | 1011.2 |
| 20260509051128 | 73 | 0 | 2.0 | 4.0 | 0.00 | 0.00 | 0.00 | 20 | 1011.2 |
| 20260509050626 | 73 | 270 | 6.0 | 10.0 | 0.00 | 0.00 | 0.00 | 18 | 1011.2 |
| 20260509050122 | 74 | 45 | 9.0 | 14.0 | 0.00 | 0.00 | 0.00 | 16 | 1011.2 |
| 20260509045620 | 74 | 0 | 5.0 | 7.0 | 0.00 | 0.00 | 0.00 | 10 | 1011.2 |
| 20260509045116 | 74 | 45 | 4.0 | 6.0 | 0.00 | 0.00 | 0.00 | 10 | 1011.2 |
| 20260509044613 | 75 | 270 | 15.0 | 19.0 | 0.00 | 0.00 | 0.00 | 15 | 1011.2 |
| 20260509044111 | 75 | 45 | 3.0 | 5.0 | 0.00 | 0.00 | 0.00 | 15 | 1011.6 |
| 20260509043607 | 76 | 270 | 10.0 | 15.0 | 0.00 | 0.00 | 0.00 | 16 | 1011.2 |
| 20260509043103 | 75 | 9.0 | 18.0 | 0.00 | 0.00 | 0.00 | 15 | 1011.2 | |
| 20260509042559 | 75 | 0 | 9.0 | 10.0 | 0.00 | 0.00 | 0.00 | 15 | 1011.2 |
| 20260509042055 | 75 | 45 | 11.0 | 17.0 | 0.00 | 0.00 | 0.00 | 15 | 1011.2 |
| 20260509041552 | 75 | 0 | 11.0 | 15.0 | 0.00 | 0.00 | 0.00 | 10 | 1011.6 |
| 20260509041050 | 75 | 0 | 9.0 | 12.0 | 0.00 | 0.00 | 0.00 | 10 | 1011.2 |
| 20260509040548 | 75 | 270 | 10.0 | 10.0 | 0.00 | 0.00 | 0.00 | 10 | 1011.2 |
| 20260509040044 | 74 | 0 | 9.0 | 13.0 | 0.00 | 0.00 | 0.00 | 10 | 1011.6 |
| 20260509035541 | 73 | 0 | 16.0 | 23.0 | 0.00 | 0.00 | 0.00 | 10 | 1011.6 |
| 20260509035038 | 73 | 270 | 12.0 | 19.0 | 0.00 | 0.00 | 0.00 | 17 | 1011.2 |
| 20260509034536 | 73 | 0 | 11.0 | 22.0 | 0.00 | 0.00 | 0.00 | 19 | 1011.6 |
| 20260509034033 | 73 | 270 | 5.0 | 6.0 | 0.00 | 0.00 | 0.00 | 21 | 1011.2 |
| 20260509033530 | 72 | 270 | 7.0 | 9.0 | 0.00 | 0.00 | 0.00 | 22 | 1011.2 |
| 20260509033027 | 72 | 180 | 8.0 | 12.0 | 0.00 | 0.00 | 0.00 | 22 | 1011.6 |
| 20260509032524 | 72 | 135 | 8.0 | 12.0 | 0.00 | 0.00 | 0.00 | 21 | 1011.2 |
| 20260509032021 | 71 | 0 | 14.0 | 19.0 | 0.00 | 0.00 | 0.00 | 22 | 1011.2 |
| 20260509031519 | 72 | 0 | 9.0 | 15.0 | 0.00 | 0.00 | 0.00 | 22 | 1011.6 |
| 20260509031016 | 71 | 0 | 8.0 | 11.0 | 0.00 | 0.00 | 0.00 | 22 | 1011.6 |
| 20260509030514 | 71 | 0 | 7.0 | 10.0 | 0.00 | 0.00 | 0.00 | 22 | 1011.2 |
| 20260509030010 | 71 | 270 | 12.0 | 20.0 | 0.00 | 0.00 | 0.00 | 24 | 1011.6 |
| 20260509025506 | 71 | 270 | 11.0 | 13.0 | 0.00 | 0.00 | 0.00 | 23 | 1011.2 |
| 20260509025002 | 71 | 0 | 9.0 | 15.0 | 0.00 | 0.00 | 0.00 | 23 | 1011.6 |
| 20260509024458 | 71 | 270 | 10.0 | 15.0 | 0.00 | 0.00 | 0.00 | 23 | 1010.9 |
| 20260509023955 | 71 | 0 | 8.0 | 12.0 | 0.00 | 0.00 | 0.00 | 25 | 1011.6 |
| 20260509023452 | 71 | 315 | 10.0 | 15.0 | 0.00 | 0.00 | 0.00 | 25 | 1011.2 |
| 20260509022949 | 71 | 45 | 14.0 | 19.0 | 0.00 | 0.00 | 0.00 | 25 | 1011.2 |
| 20260509022446 | 71 | 270 | 8.0 | 12.0 | 0.00 | 0.00 | 0.00 | 25 | 1011.6 |
| 20260509021943 | 71 | 0 | 11.0 | 15.0 | 0.00 | 0.00 | 0.00 | 26 | 1011.2 |
| 20260509021440 | 71 | 270 | 5.0 | 8.0 | 0.00 | 0.00 | 0.00 | 27 | 1011.6 |
| 20260509020938 | 71 | 0 | 11.0 | 15.0 | 0.00 | 0.00 | 0.00 | 27 | 1011.6 |
| 20260509020436 | 70 | 0 | 11.0 | 15.0 | 0.00 | 0.00 | 0.00 | 26 | 1011.6 |
| 20260509015932 | 70 | 270 | 15.0 | 19.0 | 0.00 | 0.00 | 0.00 | 27 | 1011.6 |
| 20260509015431 | 70 | 315 | 13.0 | 14.0 | 0.00 | 0.00 | 0.00 | 27 | 1011.6 |
| 20260509014927 | 70 | 0 | 16.0 | 24.0 | 0.00 | 0.00 | 0.00 | 28 | 1011.6 |
| 20260509014424 | 71 | 45 | 12.0 | 14.0 | 0.00 | 0.00 | 0.00 | 28 | 1011.6 |
| 20260509013920 | 71 | 270 | 15.0 | 19.0 | 0.00 | 0.00 | 0.00 | 28 | 1011.2 |
| 20260509013417 | 71 | 0 | 7.0 | 11.0 | 0.00 | 0.00 | 0.00 | 27 | 1011.2 |
| 20260509012913 | 71 | 0 | 13.0 | 22.0 | 0.00 | 0.00 | 0.00 | 29 | 1011.9 |
| 20260509012410 | 71 | 0 | 8.0 | 10.0 | 0.00 | 0.00 | 0.00 | 29 | 1011.6 |
| 20260509011907 | 71 | 0 | 14.0 | 20.0 | 0.00 | 0.00 | 0.00 | 29 | 1011.2 |
| 20260509011404 | 70 | 0 | 11.0 | 14.0 | 0.00 | 0.00 | 0.00 | 30 | 1011.6 |
| 20260509010902 | 70 | 270 | 9.0 | 19.0 | 0.00 | 0.00 | 0.00 | 30 | 1011.6 |
| 20260509010400 | 70 | 315 | 13.0 | 15.0 | 0.00 | 0.00 | 0.00 | 30 | 1011.6 |
| 20260509005856 | 70 | 315 | 17.0 | 26.0 | 0.00 | 0.00 | 0.00 | 31 | 1011.2 |
| 20260509005354 | 70 | 180 | 9.0 | 13.0 | 0.00 | 0.00 | 0.00 | 32 | 1011.2 |
| 20260509004849 | 70 | 45 | 10.0 | 15.0 | 0.00 | 0.00 | 0.00 | 33 | 1011.6 |
| 20260509004346 | 70 | 270 | 11.0 | 19.0 | 0.00 | 0.00 | 0.00 | 33 | 1011.2 |
| 20260509003843 | 70 | 270 | 15.0 | 22.0 | 0.00 | 0.00 | 0.00 | 35 | 1011.2 |
| 20260509003341 | 69 | 225 | 5.0 | 6.0 | 0.00 | 0.00 | 0.00 | 35 | 1011.2 |
| 20260509002838 | 69 | 270 | 6.0 | 10.0 | 0.00 | 0.00 | 0.00 | 36 | 1010.9 |
| 20260509002336 | 69 | 270 | 7.0 | 10.0 | 0.00 | 0.00 | 0.00 | 37 | 1010.9 |
| 20260509001833 | 68 | 45 | 5.0 | 6.0 | 0.00 | 0.00 | 0.00 | 37 | 1010.9 |
| 20260509001329 | 68 | 45 | 7.0 | 8.0 | 0.00 | 0.00 | 0.00 | 37 | 1010.9 |
| 20260509000826 | 68 | 45 | 2.0 | 2.0 | 0.00 | 0.00 | 0.00 | 37 | 1010.4 |
| 20260509000325 | 68 | 45 | 3.0 | 7.0 | 0.00 | 0.00 | 0.00 | 36 | 1010.9 |
| 20260508235820 | 68 | 315 | 6.0 | 7.0 | 0.00 | 0.00 | 0.00 | 36 | 1010.9 |
| 20260508235317 | 68 | 0 | 4.0 | 6.0 | 0.00 | 0.00 | 0.00 | 37 | 1010.4 |
| 20260508234814 | 68 | 45 | 4.0 | 5.0 | 0.00 | 0.00 | 0.00 | 38 | 1010.4 |
| 20260508234310 | 68 | 45 | 2.0 | 5.0 | 0.00 | 0.00 | 0.00 | 38 | 1010.4 |
| 20260508233809 | 68 | 90 | 2.0 | 2.0 | 0.00 | 0.00 | 0.00 | 38 | 1010.4 |
| 20260508233308 | 69 | 90 | 5.0 | 6.0 | 0.00 | 0.00 | 0.00 | 38 | 1010.4 |
| 20260508232805 | 69 | 180 | 3.0 | 4.0 | 0.00 | 0.00 | 0.00 | 38 | 1010.1 |
| 20260508232301 | 69 | 90 | 4.0 | 5.0 | 0.00 | 0.00 | 0.00 | 38 | 1010.1 |
| 20260508231800 | 69 | 90 | 1.0 | 3.0 | 0.00 | 0.00 | 0.00 | 38 | 1010.1 |
| 20260508231255 | 70 | 315 | 2.0 | 3.0 | 0.00 | 0.00 | 0.00 | 39 | 1010.1 |
| 20260508230752 | 70 | 0 | 2.0 | 4.0 | 0.00 | 0.00 | 0.00 | 39 | 1009.8 |
| 20260508230248 | 72 | 0 | 5.0 | 7.0 | 0.00 | 0.00 | 0.00 | 40 | 1010.1 |
| 20260508225746 | 72 | 45 | 3.0 | 4.0 | 0.00 | 0.00 | 0.00 | 41 | 1010.1 |
| 20260508225242 | 73 | 0 | 2.0 | 2.0 | 0.00 | 0.00 | 0.00 | 43 | 1009.8 |
| 20260508224740 | 73 | 45 | 3.0 | 5.0 | 0.00 | 0.00 | 0.00 | 44 | 1009.8 |
| 20260508224238 | 72 | 0 | 0.0 | 1.0 | 0.00 | 0.00 | 0.00 | 44 | 1009.8 |
| 20260508223736 | 71 | 0 | 2.0 | 3.0 | 0.00 | 0.00 | 0.00 | 45 | 1009.8 |
| 20260508223232 | 70 | 0 | 4.0 | 4.0 | 0.00 | 0.00 | 0.00 | 48 | 1009.4 |
| 20260508222730 | 69 | 45 | 3.0 | 4.0 | 0.00 | 0.00 | 0.00 | 48 | 1009.4 |
| 20260508222227 | 70 | 45 | 3.0 | 4.0 | 0.00 | 0.00 | 0.00 | 49 | 1009.4 |
| 20260508221723 | 70 | 45 | 5.0 | 5.0 | 0.00 | 0.00 | 0.00 | 53 | 1009.1 |
| 20260508221219 | 68 | 270 | 1.0 | 2.0 | 0.00 | 0.00 | 0.00 | 56 | 1008.8 |
| 20260508220715 | 66 | 135 | 1.0 | 2.0 | 0.00 | 0.00 | 0.00 | 57 | 1008.8 |
| 20260508220213 | 66 | 45 | 4.0 | 5.0 | 0.00 | 0.00 | 0.00 | 60 | 1008.8 |
| 20260508215709 | 65 | 45 | 5.0 | 5.0 | 0.00 | 0.00 | 0.00 | 62 | 1008.8 |
| 20260508215205 | 64 | 45 | 3.0 | 5.0 | 0.00 | 0.00 | 0.00 | 64 | 1008.8 |
| 20260508214703 | 63 | 90 | 1.0 | 2.0 | 0.00 | 0.00 | 0.00 | 66 | 1008.8 |
| 20260508214200 | 62 | 90 | 2.0 | 2.0 | 0.00 | 0.00 | 0.00 | 69 | 1008.8 |
| 20260508213656 | 61 | 45 | 4.0 | 6.0 | 0.00 | 0.00 | 0.00 | 71 | 1008.8 |
| 20260508213153 | 60 | 0 | 1.0 | 2.0 | 0.00 | 0.00 | 0.00 | 72 | 1008.4 |
| 20260508212649 | 60 | 90 | 2.0 | 2.0 | 0.00 | 0.00 | 0.00 | 72 | 1008.1 |
| 20260508212146 | 59 | 45 | 2.0 | 3.0 | 0.00 | 0.00 | 0.00 | 72 | 1008.4 |
| 20260508211641 | 59 | 90 | 1.0 | 2.0 | 0.00 | 0.00 | 0.00 | 73 | 1008.4 |
| 20260508211137 | 59 | 270 | 0.0 | 1.0 | 0.00 | 0.00 | 0.00 | 73 | 1008.1 |
| 20260508210634 | 59 | 0 | 2.0 | 2.0 | 0.00 | 0.00 | 0.00 | 73 | 1007.7 |
| 20260508210132 | 59 | 0 | 2.0 | 2.0 | 0.00 | 0.00 | 0.00 | 73 | 1007.7 |
| 20260508205629 | 58 | 0 | 3.0 | 3.0 | 0.00 | 0.00 | 0.00 | 73 | 1008.1 |
| 20260508205125 | 58 | 0 | 0.0 | 0.0 | 0.00 | 0.00 | 0.00 | 72 | 1007.7 |
| 20260508204621 | 58 | 0 | 1.0 | 2.0 | 0.00 | 0.00 | 0.00 | 72 | 1007.4 |
| 20260508204118 | 58 | 270 | 2.0 | 2.0 | 0.00 | 0.00 | 0.00 | 72 | 1007.7 |
| 20260508203614 | 58 | 225 | 3.0 | 3.0 | 0.00 | 0.00 | 0.00 | 72 | 1007.4 |
| 20260508203110 | 58 | 270 | 3.0 | 4.0 | 0.00 | 0.00 | 0.00 | 72 | 1007.1 |
| 20260508202606 | 58 | 270 | 2.0 | 2.0 | 0.00 | 0.00 | 0.00 | 71 | 1007.1 |
| 20260508202104 | 58 | 270 | 2.0 | 2.0 | 0.00 | 0.00 | 0.00 | 71 | 1007.1 |
| 20260508201600 | 58 | 270 | 0.0 | 0.0 | 0.00 | 0.00 | 0.00 | 71 | 1007.1 |
| 20260508201057 | 58 | 0 | 1.0 | 2.0 | 0.00 | 0.00 | 0.00 | 71 | 1007.1 |
| 20260508200554 | 58 | 225 | 2.0 | 2.0 | 0.00 | 0.00 | 0.00 | 71 | 1007.1 |
| 20260508200049 | 58 | 225 | 5.0 | 5.0 | 0.00 | 0.00 | 0.00 | 70 | 1006.7 |
| 20260508195547 | 58 | 180 | 5.0 | 5.0 | 0.00 | 0.00 | 0.00 | 70 | 1006.4 |
| 20260508195043 | 58 | 225 | 4.0 | 5.0 | 0.00 | 0.00 | 0.00 | 70 | 1006.4 |
| 20260508194540 | 58 | 270 | 2.0 | 2.0 | 0.00 | 0.00 | 0.00 | 70 | 1006.4 |
| 20260508194037 | 58 | 135 | 1.0 | 2.0 | 0.00 | 0.00 | 0.00 | 70 | 1006.4 |
| 20260508193533 | 58 | 180 | 1.0 | 2.0 | 0.00 | 0.00 | 0.00 | 70 | 1006.0 |
| 20260508193030 | 58 | 270 | 2.0 | 3.0 | 0.00 | 0.00 | 0.00 | 70 | 1006.4 |
| 20260508192527 | 58 | 225 | 2.0 | 2.0 | 0.00 | 0.00 | 0.00 | 69 | 1006.0 |
| 20260508192025 | 58 | 135 | 0.0 | 0.0 | 0.00 | 0.00 | 0.00 | 69 | 1006.0 |
| 20260508191521 | 59 | 180 | 0.0 | 0.0 | 0.00 | 0.00 | 0.00 | 69 | 1006.0 |
| 20260508191017 | 59 | 270 | 3.0 | 5.0 | 0.00 | 0.00 | 0.00 | 68 | 1006.4 |
| 20260508190515 | 59 | 0 | 1.0 | 2.0 | 0.00 | 0.00 | 0.00 | 68 | 1006.4 |
| 20260508190011 | 59 | 270 | 3.0 | 4.0 | 0.00 | 0.00 | 0.00 | 68 | 1006.0 |
| 20260508185509 | 59 | 0 | 2.0 | 2.0 | 0.00 | 0.00 | 0.00 | 67 | 1006.0 |
| 20260508185006 | 59 | 270 | 1.0 | 2.0 | 0.00 | 0.00 | 0.00 | 64 | 1005.7 |
| 20260508184504 | 59 | 180 | 0.0 | 1.0 | 0.00 | 0.00 | 0.00 | 66 | 1005.7 |
| 20260508184000 | 59 | 135 | 1.0 | 2.0 | 0.00 | 0.00 | 0.00 | 66 | 1005.4 |
| 20260508183456 | 59 | 180 | 1.0 | 2.0 | 0.00 | 0.00 | 0.00 | 65 | 1005.7 |
| 20260508182956 | 59 | 180 | 3.0 | 4.0 | 0.00 | 0.00 | 0.00 | 65 | 1005.4 |
| 20260508182454 | 59 | 225 | 3.0 | 4.0 | 0.00 | 0.00 | 0.00 | 65 | 1005.4 |
| 20260508181949 | 59 | 270 | 4.0 | 5.0 | 0.00 | 0.00 | 0.00 | 64 | 1005.4 |
| 20260508181446 | 59 | 270 | 3.0 | 4.0 | 0.00 | 0.00 | 0.00 | 64 | 1005.7 |
| 20260508180944 | 59 | 180 | 3.0 | 4.0 | 0.00 | 0.00 | 0.00 | 64 | 1005.4 |
| 20260508180440 | 59 | 270 | 3.0 | 5.0 | 0.00 | 0.00 | 0.00 | 64 | 1005.0 |
| 20260508175936 | 60 | 225 | 2.0 | 2.0 | 0.00 | 0.00 | 0.00 | 63 | 1005.4 |
| 20260508175433 | 60 | 180 | 2.0 | 3.0 | 0.00 | 0.00 | 0.00 | 63 | 1005.0 |
| 20260508174931 | 60 | 180 | 2.0 | 2.0 | 0.00 | 0.00 | 0.00 | 63 | 1005.4 |
| 20260508174428 | 60 | 180 | 0.0 | 0.0 | 0.00 | 0.00 | 0.00 | 63 | 1005.0 |
| 20260508173924 | 60 | 270 | 2.0 | 2.0 | 0.00 | 0.00 | 0.00 | 62 | 1005.4 |